Location: Newark
(34.9500°N, 139.9667°E)
Time: 05:18:27
(UTC+00:00)

SR - Visible Passes

Search period start: 10 December 2019 00:00
Search period end: 20 December 2019 00:00
Orbit: 573 x 882 km, 66.7° (Epoch: 08 December)

Date Brightness Start Highest point End Pass type
(mag) Time Alt. Az. Time Alt. Az. Time Alt. Az.
10 Dec ? 08:46:14 10° NNW 08:51:40 39° ENE 08:55:13 19° ESE visible
10 Dec ? 10:28:48 10° NW 10:33:31 27° WSW 10:34:50 24° SW visible
11 Dec ? 07:57:15 10° N 08:01:37 21° NE 08:05:49 10° E visible
11 Dec ? 09:38:30 10° NW 09:44:09 56° WSW 09:49:24 10° S visible
12 Dec ? 08:48:43 10° NNW 08:54:32 72° ENE 08:59:57 10° SSE visible
12 Dec ? 10:33:20 10° WNW 10:35:49 13° WSW 10:38:15 10° SW visible
13 Dec ? 07:59:20 10° N 08:04:43 37° NE 08:09:44 10° ESE visible
13 Dec ? 09:41:49 10° NW 09:46:37 28° WSW 09:51:09 10° SSW visible
14 Dec ? 08:51:33 10° NW 08:57:14 60° WSW 09:02:29 10° S visible
15 Dec ? 08:01:49 10° NNW 08:07:36 68° ENE 08:12:58 10° SE visible
15 Dec ? 09:46:08 10° WNW 09:48:56 14° WSW 09:51:38 10° SW visible
16 Dec ? 08:54:49 10° NW 08:59:43 30° WSW 09:04:19 10° SSW visible
17 Dec ? 08:04:36 10° NNW 08:10:18 64° WSW 08:15:33 10° SSE visible
17 Dec ? 20:50:04 10° SSE 20:54:01 21° ESE 20:58:10 10° ENE visible
18 Dec ? 08:58:58 10° WNW 09:02:02 15° WSW 09:04:58 10° SW visible
19 Dec ? 08:07:49 10° NW 08:12:48 32° WSW 08:17:27 10° S visible
19 Dec ? 20:51:23 10° S 20:56:25 41° ESE 21:01:48 10° NE visible
